Theta_e
291 290 290 290 289 288 286 286 286 287 285 285 286 285 284 283 283 283 283 282 283 282 282 282 282 283 283 283 284 285 286 288 291 293 294 295 296 301 301 305 308 313 314 317
288 289 287 288 287 286 284 285 286 285 285 285 286 283 283 283 282 282 283 283 281 282 282 282 282 283 284 284 285 286 287 289 292 294 295 295 297 302 303 306 309 313 317 317
291 290 289 290 287 285 286 286 285 285 285 285 283 283 282 282 282 283 282 281 281 281 281 282 283 283 284 284 286 287 288 291 293 295 296 296 299 303 304 308 310 314 316 316
290 290 295 288 285 285 285 284 284 285 284 283 283 282 282 282 284 281 281 281 281 281 282 282 282 284 285 286 287 288 290 292 294 295 296 297 300 304 308 309 314 315 315 315
290 289 291 288 286 285 285 284 284 282 283 282 282 282 284 285 281 281 281 281 280 281 281 281 284 286 289 288 288 289 291 294 295 296 297 297 300 305 308 310 315 315 314 314
290 290 293 290 286 285 282 287 285 284 282 282 282 282 283 281 281 281 280 280 280 281 281 283 285 290 293 292 291 292 292 295 297 297 298 300 302 306 309 312 314 314 313 313
289 290 291 286 285 285 287 289 285 284 282 282 281 281 280 281 280 280 280 280 281 280 281 284 285 293 296 296 295 294 297 297 297 298 299 303 304 310 315 315 314 313 312 312
288 289 292 285 286 286 287 285 284 283 282 281 280 280 281 280 280 280 280 280 280 280 281 283 285 287 293 299 300 299 298 298 298 299 302 307 308 315 314 313 312 311 311 311
289 292 287 287 286 286 284 283 283 282 282 281 280 280 280 280 280 280 280 280 280 280 282 283 284 286 288 291 297 298 298 299 302 304 306 313 314 313 312 311 310 309 309 309
285 289 287 286 286 284 284 283 282 282 281 281 280 280 279 279 280 280 280 280 279 280 282 282 283 284 285 289 297 299 301 302 302 308 314 314 313 312 311 310 309 308 308 306
286 287 287 286 284 284 282 282 281 281 280 280 279 279 279 279 279 279 279 279 279 280 281 282 283 284 284 289 296 299 298 305 309 311 310 310 310 311 311 310 309 308 307 305
290 287 286 286 284 283 281 281 280 280 280 278 278 278 278 278 278 279 278 278 279 279 281 281 283 283 283 287 293 300 301 303 304 305 307 307 307 307 310 310 310 309 308 307
288 283 283 283 282 280 280 279 279 280 278 278 277 277 277 277 277 278 278 278 278 279 281 281 282 283 283 284 290 294 298 301 302 303 303 303 304 304 302 306 308 308 307 307
283 280 284 283 283 279 278 278 278 278 278 277 276 276 276 276 276 277 277 277 277 279 281 280 282 282 282 283 287 291 295 297 300 301 302 302 302 302 302 301 300 302 304 306
281 281 281 280 278 278 278 277 277 277 276 275 275 275 275 275 276 277 277 277 278 279 280 280 281 282 281 282 284 287 292 295 297 299 300 301 302 302 301 301 300 300 301 303
281 280 278 276 277 277 276 276 276 275 274 274 275 275 275 275 276 277 277 276 278 279 280 280 281 281 281 282 283 286 289 293 295 296 298 299 299 300 299 298 298 298 298 298
279 279 277 277 277 276 274 273 272 273 273 274 275 274 274 276 277 277 276 276 278 279 280 280 281 281 281 281 283 283 286 290 293 295 295 296 296 296 297 297 296 296 297 298
277 275 274 275 276 274 274 274 274 274 274 274 274 275 276 276 276 276 276 277 278 278 279 279 281 281 280 281 282 283 285 287 291 292 294 294 294 295 295 294 294 294 296 297
274 273 273 272 272 272 272 272 273 274 275 275 275 276 277 277 277 277 276 278 278 277 279 279 280 280 280 280 281 283 283 285 288 290 291 292 292 292 292 291 290 290 291 292
272 271 272 272 272 272 272 274 274 275 276 277 277 277 278 277 277 277 277 278 277 277 279 279 280 280 280 280 280 281 282 283 285 287 289 289 290 289 289 289 290 290 290 291
273 273 272 273 274 275 275 276 276 277 277 277 277 277 277 277 278 278 277 278 277 277 279 278 280 280 280 279 279 279 280 281 283 284 285 286 287 288 289 289 289 288 288 287
276 276 276 276 276 277 277 277 276 276 277 277 277 277 277 278 278 277 277 277 277 277 278 277 279 280 279 278 278 278 279 280 281 283 284 284 285 285 285 286 286 286 287 287
277 277 277 277 277 277 277 276 276 276 276 276 276 276 277 277 277 277 277 276 276 277 277 276 279 279 278 278 277 277 278 279 280 281 282 282 283 284 284 284 284 284 285 285
277 277 277 277 277 276 277 277 276 276 276 276 276 276 277 277 277 277 276 276 276 276 276 276 278 278 276 276 276 276 277 278 279 279 280 281 282 282 282 283 283 283 283 284
277 277 276 276 276 277 277 276 275 276 276 276 277 277 277 277 276 276 276 275 275 275 275 275 276 276 276 275 275 276 276 277 278 279 279 280 280 281 281 282 283 283 283 283
276 277 277 276 276 276 276 276 276 276 276 277 277 277 277 277 276 276 276 276 275 274 274 274 275 274 275 275 275 275 276 276 277 277 278 279 279 280 280 281 281 282 282 282
275 276 276 276 275 275 275 276 276 277 277 276 276 277 277 276 276 276 275 275 275 274 274 274 275 275 274 274 275 275 275 276 276 276 277 278 278 279 279 280 280 280 281 281
Wind_Speed
18 21 17 17 15 10 12 16 10 24 26 30 29 27 32 33 32 34 33 31 27 27 25 27 30 29 27 26 27 26 28 30 34 33 31 30 30 29 28 27 34 30 24 33
19 7 6 11 14 13 13 14 18 22 28 24 20 27 30 31 32 33 31 34 33 29 29 25 27 26 24 23 24 25 27 29 32 31 31 31 32 30 29 29 31 27 32 38
6 8 15 6 7 10 9 13 16 20 25 23 27 28 30 33 32 29 35 34 32 31 27 26 30 28 21 21 23 25 27 29 33 31 30 29 30 29 31 31 30 32 37 40
7 14 4 3 3 6 15 20 18 18 19 22 25 26 29 29 22 32 33 33 32 26 26 39 38 29 19 19 23 25 27 28 31 30 29 29 31 30 30 31 36 37 36 40
4 8 13 3 2 7 9 22 6 10 20 24 25 27 21 17 29 31 31 28 28 38 40 40 33 26 17 20 23 24 25 27 31 30 29 33 32 29 30 27 34 41 41 41
4 5 5 1 2 10 2 7 5 18 22 26 29 21 20 36 35 36 39 41 38 43 39 32 30 21 14 19 22 21 25 28 28 29 29 33 33 30 33 32 33 37 39 40
7 6 8 4 7 10 9 10 22 19 19 22 18 16 30 32 32 39 40 42 45 40 32 33 33 25 12 12 16 25 29 30 28 28 31 30 34 31 33 33 34 33 34 35
2 4 6 1 8 5 10 17 19 20 18 21 23 26 26 28 29 29 32 44 46 37 34 37 35 31 19 6 13 23 25 25 26 31 26 27 33 34 33 31 32 30 30 29
6 4 3 8 6 11 11 16 19 18 19 19 23 26 27 25 27 25 35 39 46 40 35 39 39 34 24 23 1 18 23 24 18 18 26 33 34 33 32 34 32 27 27 27
4 4 6 7 10 6 11 16 18 16 18 19 22 26 26 25 24 24 35 34 44 37 33 37 44 38 31 29 2 7 6 15 25 24 28 33 32 33 31 27 25 23 24 23
8 15 12 4 4 9 14 15 19 21 20 19 20 24 23 23 24 29 36 38 36 35 34 36 37 38 35 28 7 22 22 12 20 29 29 27 25 23 25 26 33 30 25 27
3 2 2 6 6 11 11 14 15 15 20 24 23 22 28 20 33 34 37 43 38 41 41 45 44 41 44 44 31 16 14 22 23 25 24 25 24 24 22 25 26 29 32 36
2 3 4 8 10 8 9 14 18 20 21 17 26 27 32 26 32 41 37 44 47 40 41 38 39 42 51 44 35 31 23 21 24 25 23 22 19 21 18 15 18 21 24 31
6 2 7 4 4 10 14 17 19 20 18 20 21 26 31 30 31 35 36 39 41 45 46 48 51 53 51 47 41 38 29 26 23 23 25 24 22 22 21 18 15 16 21 22
9 9 8 6 9 10 11 13 13 11 18 23 24 22 27 29 28 31 36 39 39 38 43 49 47 50 52 49 42 35 30 24 19 21 21 24 25 24 21 19 16 17 20 21
5 5 3 4 7 6 7 8 9 10 16 21 23 24 28 28 28 28 32 35 35 35 41 43 44 47 49 50 45 37 32 25 18 18 20 21 21 23 22 18 14 15 18 26
5 2 3 5 5 3 3 10 10 14 17 18 23 27 26 27 27 29 33 34 30 31 37 40 41 45 44 44 39 32 28 25 17 16 19 19 18 19 21 20 15 17 15 27
2 3 2 1 3 3 5 9 14 16 16 21 26 25 22 23 22 27 28 31 30 31 37 40 43 43 42 42 40 35 29 24 17 16 16 19 19 20 20 20 19 20 24 25
10 8 7 7 9 9 11 12 14 18 22 22 20 22 23 21 23 24 27 24 26 28 37 38 38 39 41 40 36 32 28 23 19 15 14 15 19 18 20 22 19 19 21 27
7 8 7 8 9 10 13 13 13 15 17 16 17 20 23 23 22 24 23 20 20 25 31 32 33 34 37 36 31 29 25 22 17 16 13 15 18 19 20 21 22 21 21 24
8 8 7 8 8 7 10 10 10 12 15 15 15 17 21 24 21 20 20 18 25 29 31 29 31 34 32 30 27 27 25 23 19 16 13 13 15 18 21 20 21 22 22 23
8 7 7 7 6 7 6 7 8 11 13 14 14 15 18 21 21 18 15 14 24 25 27 26 28 31 29 26 26 25 24 22 19 15 13 11 13 16 19 21 21 22 24 24
8 6 5 4 4 5 6 7 8 9 12 13 14 14 15 17 18 17 16 23 23 25 23 22 27 27 24 25 25 24 24 20 18 16 12 10 11 14 18 20 21 21 24 24
7 6 4 3 3 5 6 5 8 10 12 12 12 13 13 15 17 12 16 20 20 24 21 22 25 25 22 24 23 22 20 20 16 13 11 10 13 15 19 21 22 21 22 24
7 5 3 3 4 5 4 5 8 9 9 10 10 10 10 9 10 19 18 19 20 20 23 23 22 23 25 23 22 20 20 16 16 12 12 12 12 14 18 21 22 23 23 23
7 5 4 4 4 4 4 4 6 8 8 10 10 10 11 11 12 14 15 15 18 17 21 23 24 22 24 21 19 19 18 18 14 12 11 12 13 16 18 20 20 21 22 23
6 6 5 4 3 3 4 3 5 7 8 9 10 9 10 10 11 13 13 13 15 16 18 20 21 22 21 20 19 18 16 14 14 10 12 12 13 14 16 18 20 22 24 25
Wind_Direction
277 284 288 283 281 271 226 243 264 290 293 295 305 315 316 310 310 311 310 309 315 313 310 305 298 291 283 263 249 237 228 227 224 217 214 210 210 206 199 205 200 200 213 192
291 251 215 274 271 255 251 259 261 284 286 290 313 310 309 311 311 310 310 318 317 314 312 307 301 290 278 257 241 226 221 223 223 210 207 204 204 200 192 202 188 194 191 187
280 309 311 257 228 213 244 265 279 292 289 313 312 313 314 312 310 312 317 316 317 316 313 307 304 296 274 248 228 220 214 216 220 204 200 199 199 194 195 195 187 187 183 183
287 308 285 118 218 239 250 274 275 275 285 302 308 307 305 296 318 316 317 320 319 316 314 315 307 296 269 230 215 211 207 216 217 196 194 196 195 191 193 191 184 177 180 183
292 306 278 164 192 319 315 304 297 275 304 316 312 308 307 334 325 317 318 320 318 316 316 310 305 293 249 208 200 201 203 211 209 191 190 193 195 194 190 188 180 179 177 180
326 298 293 73 269 338 356 284 313 338 322 323 327 331 329 330 326 324 324 326 325 328 323 319 322 316 191 180 182 193 203 210 202 190 190 191 189 200 197 196 178 180 174 179
261 269 277 67 326 300 318 321 331 328 319 322 320 306 306 314 318 322 321 326 330 334 335 335 343 355 159 179 179 197 210 194 187 188 193 188 188 203 184 172 168 169 169 177
217 259 285 38 300 345 319 306 314 319 320 317 309 309 316 319 321 327 330 333 339 340 343 347 358 7 7 154 189 175 173 178 189 183 195 191 201 164 156 153 156 157 161 167
221 259 135 298 283 306 305 307 314 317 319 318 316 317 324 325 327 332 334 336 339 342 347 1 5 11 6 346 48 163 170 170 185 216 206 193 151 150 151 152 151 154 160 163
317 211 276 306 308 294 312 311 312 317 319 323 321 320 327 327 330 335 338 344 339 345 353 358 360 3 1 357 317 147 154 225 261 219 158 145 150 151 152 151 145 162 161 156
258 277 284 250 273 313 312 310 316 322 327 325 327 322 329 328 331 335 339 344 347 346 351 358 3 2 1 2 352 221 243 182 154 121 122 125 131 149 149 154 167 162 164 162
263 109 265 311 327 322 307 314 318 321 320 325 329 324 328 334 331 338 341 343 351 351 358 358 0 7 8 3 19 157 144 94 100 107 108 115 120 114 138 155 168 179 180 180
352 26 299 299 309 310 307 313 315 318 318 322 327 329 328 336 337 335 349 348 346 353 355 357 6 11 4 7 13 33 64 83 92 102 105 109 114 116 103 133 165 178 188 189
234 248 272 237 303 319 307 308 313 311 314 318 326 333 331 335 341 341 349 347 349 349 357 1 3 5 5 6 8 24 40 66 85 101 109 112 112 109 115 119 119 146 173 185
228 216 261 307 301 298 304 314 317 317 323 325 332 334 337 334 341 340 342 348 352 356 1 1 4 2 360 3 7 16 26 43 76 102 113 121 125 120 115 120 127 138 145 157
161 197 239 266 288 291 301 302 313 313 319 323 325 334 333 330 334 343 345 352 359 356 357 1 360 357 358 2 4 10 15 32 69 95 112 116 122 125 128 133 141 136 143 136
139 232 208 254 238 259 270 292 280 289 306 313 319 324 331 333 338 349 347 349 356 360 358 0 355 356 358 4 4 4 10 21 44 82 96 110 117 120 129 132 130 125 136 136
153 111 129 228 268 268 283 291 299 304 304 314 320 324 332 336 336 337 344 342 353 0 5 358 356 357 359 3 3 11 13 17 40 61 89 104 108 117 119 122 120 118 119 128
212 227 227 229 248 257 272 278 296 307 314 324 322 323 324 331 333 336 342 351 358 356 356 355 357 358 358 0 2 15 14 18 31 60 79 98 110 107 110 112 109 113 118 123
182 210 221 241 246 251 272 286 302 304 312 318 324 326 327 330 337 339 344 351 6 344 350 354 356 359 358 358 2 12 12 18 30 46 69 95 102 102 104 110 118 118 124 132
194 201 220 234 252 262 265 282 291 300 309 317 322 325 322 321 333 343 345 346 350 353 351 356 359 358 358 357 10 9 12 19 28 33 48 78 99 111 118 125 125 128 127 134
185 188 212 222 238 267 279 285 295 301 307 314 321 324 325 323 332 339 344 349 341 352 350 351 356 358 358 3 13 9 14 24 27 41 50 67 97 107 112 120 121 128 133 132
171 187 209 225 251 278 292 297 296 299 302 309 316 319 320 318 323 331 333 341 342 347 349 351 354 359 0 14 13 15 14 22 30 45 54 75 95 113 116 119 123 127 128 131
165 191 208 223 264 283 293 312 304 303 302 307 308 310 313 320 322 331 331 333 341 344 348 352 355 359 5 15 16 16 19 17 30 42 58 86 99 109 119 123 123 127 127 130
169 184 211 219 252 278 301 311 310 314 314 315 313 318 318 321 311 318 329 337 342 346 349 356 358 1 8 12 18 20 14 20 24 44 65 81 95 107 116 122 125 127 127 128
168 187 207 231 247 273 289 299 308 316 312 312 317 322 322 324 320 325 331 339 345 350 357 358 2 2 7 9 13 21 27 23 29 48 70 84 100 109 113 117 121 125 126 128
170 187 202 219 232 243 255 275 286 296 303 303 309 320 330 328 328 328 334 341 349 353 357 360 3 5 5 11 18 21 24 30 35 50 79 90 100 108 112 116 121 124 126 129